Regional Weather Roundup
Issued by NWS

Home | Current Version | Previous Version | Graphics & Text | Print | Product List | Glossary On
Versions: 1 2 3 4 5 6 7 8 9 10 11 12 13 14 15 16 17 18 19 20 21 22 23 24 25 26 27 28 29 30 31 32 33 34 35 36 37 38 39 40 41 42 43 44 45 46 47 48 49 50
000
ASUS43 KMPX 221710
RWRMN
WEATHER ROUNDUP FOR MINNESOTA
NATIONAL WEATHER SERVICE TWIN CITIES/CHANHASSEN MN
1200 PM CDT WED MAR 22 2017


NOTE: "FAIR" INDICATES FEW OR NO CLOUDS BELOW 12,000 FEET WITH NO
SIGNIFICANT WEATHER AND/OR OBSTRUCTIONS TO VISIBILITY. N/A MEANS
CURRENT SKY AND/OR WEATHER CONDITIONS ARE NOT AVAILABLE.

MNZ060>063-068>070-221800-
   Twin Cities Metro

CITY           SKY/WX    TMP DP  RH WIND       PRES   REMARKS
TWIN CITIES    MOSUNNY   32   7  35 SE12G23   30.54F WCI  23
ST PAUL        SUNNY     33   8  35 SE13G20   30.55F WCI  24
CRYSTAL        SUNNY     33   6  32 SE14      30.52F WCI  23
BLAINE         MOSUNNY   36   9  32 SE14      30.52F
LAKEVILLE      SUNNY     30  12  47 S12       30.53F WCI  21
EDEN PRAIRIE   SUNNY     34   8  33 SE12      30.51F WCI  25
SOUTH ST PAUL  SUNNY     32   7  34 SE12G17   30.54F WCI  23
LAKE ELMO      FAIR      32  10  40 SE13      30.54F WCI  22
$$
MNZ001>005-007-008-013>017-022>024-027-028-221800-
   Northwest Minnesota

CITY           SKY/WX    TMP DP  RH WIND       PRES   REMARKS
BEMIDJI        CLOUDY    28   6  37 S10G16    30.41F WCI  19
HALLOCK        CLOUDY    27  14  59 S22       30.35F WCI  12
ROSEAU         CLOUDY    28  10  47 SE12      30.40F WCI  18
WARROAD        CLOUDY    27   9  46 S13       30.41F WCI  16
THIEF RVR FALL CLOUDY    27   9  46 SE18      30.38F WCI  14
CROOKSTON      CLOUDY    28   9  43 S20G26    30.38F WCI  15
FOSSTON        CLOUDY    27   9  46 S10       30.39F WCI  17
DETROIT LAKES  MOSUNNY   30   9  40 S21       30.39F WCI  17
MOORHEAD       CLOUDY    30  10  43 SE25G32   30.37F WCI  16
PARK RAPIDS    PTSUNNY   29   5  36 S17       30.42F WCI  17
MAHNOMEN       CLOUDY    27   7  42 S14G22    30.38F WCI  16
$$
MNZ006-009>011-018-025>026-221800-
   North Central Minnesota

CITY           SKY/WX    TMP DP  RH WIND       PRES   REMARKS
BAUDETTE       MOSUNNY   27   3  35 S12       30.42F WCI  17
FLAG ISLAND    CLOUDY    19   9  63 S18       30.42F WCI   4
INTL FALLS     CLOUDY    25  -1  32 S8        30.48F WCI  16
WASKISH        CLOUDY    28   3  34 SE9       30.44F WCI  20
BIG FORK       CLOUDY    27   7  43 S6        30.48F WCI  20
LONGVILLE      SUNNY     28   3  34 S14       30.45F WCI  17
GRAND RAPIDS   CLOUDY    27   7  42 S10       30.49F WCI  17
CRANE LAKE     CLOUDY    25  -6  26 SW6       30.52F WCI  18
ORR            SUNNY     27  -2  28 CALM      30.48S
COOK           CLOUDY    27   3  36 S6        30.50S WCI  20
WALKER         FAIR      28   5  37 S9G18     30.43F WCI  19
$$
MNZ012-019>021-037-221800-
   Northeast Minnesota

CITY           SKY/WX    TMP DP  RH WIND       PRES   REMARKS
DULUTH         CLOUDY    26   8  46 S8        30.51F WCI  18
ELY            SUNNY     27   1  33 SW8       30.50S WCI  18
HIBBING        CLOUDY    25   6  44 S8G21     30.49F WCI  16
EVELETH        SUNNY     28   0  29 S9        30.51S WCI  20
DULUTH HARBOR  CLOUDY    28  12  50 CALM      30.58F
TWO HARBORS    MOSUNNY   28  16  59 SE5       30.54S WCI  23
SILVER BAY     SUNNY     27  12  54 S7        30.54S WCI  19
GRAND MARAIS     N/A     23   8  52 CALM      30.61F
G MARAIS ARPRT SUNNY     19   1  45 S3        30.51F
$$
MNZ029>031-032-039>041-046>048-054>057-064-221800-
   West Central Minnesota

CITY           SKY/WX    TMP DP  RH WIND       PRES   REMARKS
FERGUS FALLS   CLOUDY    28  10  47 S21G28    30.46R WCI  15
WHEATON        CLOUDY    28  12  50 SE22G30   30.39F WCI  15
MORRIS         CLOUDY    28  14  54 SE24      30.40F WCI  14
ALEXANDRIA     CLOUDY    29  10  45 S16       30.42F WCI  17
ELBOW LAKE     CLOUDY    28  10  47 E23       30.40F WCI  14
WADENA         MOSUNNY   28   9  43 S14G22    30.42F WCI  17
GLENWOOD       CLOUDY    28  10  47 SE17      30.43F WCI  16
APPLETON       CLOUDY    30  14  51 S16       30.42F WCI  19
BENSON         CLOUDY    30   7  37 S17G24    30.45F WCI  18
ORTONVILLE     CLOUDY    28  16  59 SE17G23   30.38F WCI  16
MADISON        CLOUDY    30  19  64 SE21      30.41F WCI  17
WILLMAR        FAIR      30  14  51 SE18      30.46F WCI  18
$$
MNZ033>034-036-042>043-049>051-058-059-221800-
   Central Minnesota

CITY           SKY/WX    TMP DP  RH WIND       PRES   REMARKS
ST CLOUD       SUNNY     30   8  39 SE14      30.48F WCI  19
SAUK CENTRE    PTSUNNY   30  10  42 SE17G25   30.45F WCI  18
PAYNESVILLE      N/A     29   8  40 SE13G20   30.47F WCI  19
AITKIN         SUNNY     30   0  27 S7        30.48S WCI  23
PINE RIVER     SUNNY     28   9  43 SE14G20   30.48F WCI  17
BRAINERD       SUNNY     29   4  34 SE12G18   30.48S WCI  19
STAPLES        MOSUNNY   28   3  34 S12G17    30.45S WCI  18
LONG PRAIRIE   FAIR      32  10  40 E15G21    30.45F WCI  22
LITTLE FALLS   SUNNY     32   5  32 SE12G18   30.48F WCI  23
LITCHFIELD     CLOUDY    30  10  43 SE9       30.48F WCI  22
BUFFALO        SUNNY     32   7  35 SE8       30.52F WCI  25
MAPLE LAKE     SUNNY     33  12  41 SE9G17    30.50F WCI  26
HUTCHINSON     CLOUDY    32  14  47 SE12      30.50F WCI  23
$$
MNZ037-044-045-052-053-221800-
   East Central Minnesota

CITY           SKY/WX    TMP DP  RH WIND       PRES   REMARKS
PRINCETON      SUNNY     34   7  32 SE9       30.51F WCI  26
MORA           SUNNY     32   9  37 SE8       30.53F WCI  25
CAMBRIDGE      SUNNY     34  14  44 SE13      30.51S WCI  25
RUSH CITY      SUNNY     32   8  35 S10       30.53F WCI  24
MOOSE LAKE     SUNNY     32   9  37 S6        30.49F WCI  26
HINCKLEY       FAIR      32   9  37 SE9       30.52F WCI  24
CLOQUET        CLOUDY    28   1  31 CALM      30.51F
MCGREGOR       SUNNY     30   5  34 E7        30.50S WCI  23
$$
MNZ071>073-080-081-089-090-097-098-221800-
   Southwest Minnesota

CITY           SKY/WX    TMP DP  RH WIND       PRES   REMARKS
MONTEVIDEO     CLOUDY    28  16  59 S12G17    30.46S WCI  18
GRANITE FALLS  CLOUDY    31  18  59 SE16G22   30.46F WCI  20
CANBY          CLOUDY    32  18  56 SE15G22   30.41F WCI  22
MARSHALL       CLOUDY    31  18  58 S15       30.43S WCI  20
REDWOOD FALLS  CLOUDY    31  16  54 SE20      30.47F WCI  19
OLIVIA         CLOUDY    32  14  47 SE16      30.45F WCI  21
PIPESTONE      CLOUDY    30  16  55 S16       30.37F WCI  19
WINDOM         CLOUDY    30  19  64 SE20      30.43F WCI  18
WORTHINGTON    CLOUDY    29  21  72 SE15      30.42F WCI  18
JACKSON        CLOUDY    32  21  64 SE16      30.44F WCI  21
TRACY          CLOUDY    32  20  62 S12       30.42F WCI  23
SLAYTON        CLOUDY    30  20  67 SE20      30.41F WCI  17
$$
MNZ065>067-074>077-082>085-091>093-221800-
   South Central Minnesota

CITY           SKY/WX    TMP DP  RH WIND       PRES   REMARKS
MANKATO        SUNNY     33  15  47 SE10      30.51S WCI  25
NEW ULM        CLOUDY    30  16  55 S15       30.48F WCI  19
ST JAMES       CLOUDY    30  21  69 SE16      30.48F WCI  19
FAIRMONT       CLOUDY    32  21  64 S17       30.47F WCI  21
GLENCOE        MOSUNNY   34  15  45 SE12G17   30.49F WCI  25
FARIBAULT      SUNNY     34  14  44 S10G16    30.52F WCI  26
OWATONNA       SUNNY     34  12  40 SE16      30.52S WCI  23
WASECA         SUNNY     32  19  59 SE15      30.52F WCI  22
ALBERT LEA     CLOUDY    30  16  55 S10       30.50S WCI  21
$$
MNZ078>079-086>088-094>096-221800-
   Southeast Minnesota

CITY           SKY/WX    TMP DP  RH WIND       PRES   REMARKS
ROCHESTER      SUNNY     31  12  45 SE12      30.51F WCI  22
RED WING       SUNNY     34   5  29 SE12      30.54F WCI  25
STANTON        SUNNY     33  10  38 S9        30.52F WCI  25
DODGE CENTER   SUNNY     30  16  55 SE14      30.51S WCI  20
WINONA         SUNNY     34  10  37 E8        30.57F WCI  27
AUSTIN         SUNNY     32  14  47 SE10      30.51S WCI  24
PRESTON        SUNNY     30   6  35 SE10G18   30.53F WCI  21
$$
ABBREVIATIONS USED IN REMARKS
   TC - TEMPERATURES IN CELSIUS
  WCI - WIND CHILL INDEX
   HX - HEAT INDEX
  VSB - VISIBILITY
$$



USA.gov is the U.S. government's official web portal to all federal, state and local government web resources and services.